Voltar ao catálogo

VSP RF C1

AtivoCiênciaSSO
NORAD 59136·PAYLOAD·🇧🇪 Belgium

Lançado Mar 4, 2024 de Vandenberg Space Force Base

Loading…

Próximas Passagens (próximas 24 horas)

TLE

AtualizadoSource: Space-Track

Época: Sep 14, 2026, 14:24 UTC

1 59136U 24043AQ  26257.60025517  .00003418  00000-0  12902-3 0  9998
2 59136  97.5743  36.9690 0001132  89.6334 270.5035 15.27730721140747

Acompanhe VSP RF C1 em tempo real com AllMySat

Download on the App Store